{"data":{"norad_id":67622,"epoch":"2026-09-19T21:27:00.807840Z","epoch_age_seconds":121292,"freshness":"FRESH","line1":"1 67622U 26020F   26262.89375935  .00011595  00000+0  43008-3 0  9998","line2":"2 67622  42.9993 123.1005 0000715 259.1267 100.9504 15.27590038 35814","mean_motion":15.27590038,"eccentricity":7.15e-5,"inclination_deg":42.9993,"raan_deg":123.1005,"arg_perigee_deg":259.1267,"mean_anomaly_deg":100.9504,"bstar":0.00043008,"rev_number":3581,"period_min":94.266129274142,"perigee_km":482.52846616432,"apogee_km":483.50961147787,"semimajor_km":6861.1560388211,"source":"CELESTRAK","updated_at":"2026-09-20T09:00:43.611128Z"}}